Theta_e
298 298 298 297 297 297 297 297 296 297 297 297 297 296 296 296 296 296 297 298 298 298 298 299 299 299 299 299 299 299 299 298 298 297 297 297 298 298 298 298 298 298 297 297 297 297 296 296 295 294 294 293 293 293 293 294 294 293 293 292 292 292 292 291 291 291 291 291 291
298 298 297 296 296 296 297 296 296 296 297 297 297 297 297 296 296 297 297 297 298 298 299 299 298 299 298 298 299 299 299 298 297 297 297 298 298 298 298 298 298 298 298 297 297 297 296 296 295 294 293 293 293 293 293 293 293 293 293 292 292 292 292 291 291 291 291 291 291
297 298 297 297 297 297 296 296 296 296 296 297 297 297 297 297 297 297 297 297 298 298 298 298 298 298 298 298 299 299 298 298 298 297 298 298 298 298 298 298 298 298 297 298 297 297 297 297 295 294 293 293 293 294 294 294 294 293 293 292 292 292 292 291 291 291 291 290 290
297 297 297 297 297 297 296 296 296 296 296 297 297 297 297 297 297 297 297 298 298 298 298 298 298 298 298 298 298 298 298 297 297 297 298 298 298 298 298 298 298 298 298 298 298 297 297 297 296 295 294 294 294 294 293 293 293 293 293 293 292 292 292 291 291 291 290 290 290
297 297 297 297 297 297 297 297 297 297 297 297 297 297 297 297 297 297 297 297 297 297 298 298 298 298 297 298 298 298 298 298 297 297 298 298 298 298 298 298 298 297 298 298 298 297 297 297 296 296 295 295 294 293 293 293 293 293 293 293 292 292 291 291 291 291 290 290 289
297 297 297 297 297 297 297 297 297 297 297 297 296 296 296 296 297 297 297 297 297 298 297 297 297 297 297 298 298 298 298 298 298 298 298 297 298 298 298 298 297 297 297 297 297 297 297 297 296 296 296 296 295 294 294 293 293 292 292 292 291 291 291 290 290 290 290 289 289
296 297 297 297 297 297 297 297 297 297 297 296 296 296 296 296 296 297 297 297 297 297 297 296 297 297 297 297 298 297 298 298 298 298 298 298 298 297 297 297 297 297 297 296 296 296 296 297 296 296 295 295 294 294 293 292 292 292 291 291 291 291 291 291 290 290 289 289 288
296 296 296 296 296 296 296 297 296 296 296 296 296 296 295 296 296 296 296 297 297 297 297 297 297 297 297 297 297 296 296 296 297 297 297 297 297 297 297 297 297 296 296 295 295 295 295 295 295 295 295 295 294 294 293 293 292 292 291 291 291 291 291 291 291 290 289 288 288
296 296 296 296 296 296 296 296 296 295 295 296 295 295 295 295 295 295 296 296 296 296 296 297 297 297 296 296 296 296 296 296 296 296 296 296 296 296 296 296 296 295 295 295 294 294 293 293 294 295 295 295 294 294 294 293 292 292 291 291 291 291 291 291 290 290 289 288 288
296 296 296 296 296 296 295 295 295 295 295 295 295 295 294 293 294 294 295 296 295 296 296 296 296 296 296 296 295 295 295 295 295 295 295 295 295 295 295 295 295 294 294 294 293 293 293 293 293 294 294 295 295 294 294 294 293 292 292 291 291 291 290 291 290 289 288 288 288
296 296 296 296 296 295 295 295 295 295 295 295 295 295 294 293 294 294 295 294 295 295 296 296 296 295 295 295 295 295 295 295 294 294 294 294 294 294 294 294 293 293 293 293 292 292 292 292 292 293 293 294 294 294 294 293 293 292 292 291 290 290 290 290 289 289 288 287 287
296 296 295 295 295 294 294 295 295 294 295 295 294 294 294 294 294 294 294 294 295 295 296 296 295 294 294 294 294 294 294 294 294 294 293 293 293 293 293 292 292 292 292 292 291 291 291 291 291 292 292 293 293 293 293 292 292 292 291 291 291 290 289 289 289 288 287 287 287
295 295 295 295 294 294 294 294 294 294 294 294 294 294 294 294 294 294 294 294 295 295 295 295 294 294 294 293 293 293 293 293 293 292 292 292 292 292 291 291 291 291 291 291 291 291 291 291 291 291 291 292 292 292 292 291 291 291 291 291 290 290 289 289 289 288 287 287 286
295 295 295 295 294 294 294 293 294 294 294 294 294 294 294 294 294 293 294 294 294 294 295 294 294 294 293 293 293 293 292 292 292 291 291 291 291 291 291 291 291 291 291 291 291 290 290 290 290 291 291 290 291 291 291 291 290 290 290 290 290 290 290 290 289 288 287 287 286
294 294 294 294 293 293 293 293 293 294 294 294 294 294 294 294 294 293 293 294 294 294 294 294 293 293 293 292 292 292 291 291 291 290 290 290 290 290 290 291 290 290 290 291 291 290 290 290 290 290 290 290 290 291 291 290 290 290 290 290 290 290 290 290 289 289 288 287 287
295 295 294 293 293 293 293 293 293 293 294 294 294 294 293 293 293 293 293 293 293 294 294 293 293 293 293 292 291 291 290 290 290 290 290 290 290 290 290 290 290 290 290 291 291 291 291 291 291 290 290 290 290 291 291 291 291 290 290 290 290 290 290 290 289 289 288 287 287
294 294 294 293 293 293 293 293 293 293 294 294 293 293 293 293 293 293 293 292 293 293 293 293 293 293 292 292 291 290 290 290 290 290 290 290 290 290 290 290 290 290 290 290 291 291 291 291 291 291 291 290 291 291 291 291 291 290 290 290 290 290 289 289 289 288 288 287 286
294 293 293 292 292 292 292 293 293 293 293 293 293 293 293 292 292 292 292 292 292 292 292 292 292 292 291 291 291 290 290 290 290 290 290 290 290 290 290 290 290 290 290 290 290 291 291 291 291 291 291 291 291 291 290 290 290 290 289 289 289 289 289 289 288 288 287 287 287
293 293 293 292 292 292 292 292 293 293 293 293 293 293 292 292 292 292 292 292 292 292 291 292 291 291 291 290 290 290 289 289 289 289 290 290 289 289 289 289 289 289 289 289 290 290 290 290 290 290 290 290 290 290 290 290 289 289 289 289 288 288 288 288 288 287 287 286 285
293 293 293 292 292 292 292 292 292 293 293 293 292 292 292 291 291 291 292 292 292 291 291 291 291 291 291 290 290 290 290 290 289 289 289 289 289 289 289 288 288 289 289 289 290 290 290 290 289 289 289 289 289 289 289 289 289 289 288 288 288 288 288 287 287 286 286 285 284
292 292 292 293 292 292 292 292 292 292 292 292 292 291 291 291 291 291 291 291 291 290 290 290 290 290 290 290 290 290 290 289 289 289 289 289 288 288 288 287 288 288 289 289 289 289 289 289 288 288 288 288 288 289 289 289 289 289 288 288 288 288 287 287 286 285 284 284 283
292 293 292 292 292 292 292 292 292 292 291 291 291 291 291 291 291 291 291 290 290 289 289 289 289 289 289 289 290 289 289 289 289 289 288 288 288 287 287 286 287 288 289 290 289 289 288 288 288 288 288 288 288 288 288 288 288 288 288 288 288 288 287 287 286 285 284 283 282
292 292 292 291 291 291 291 291 291 291 291 291 291 291 291 291 291 291 290 289 289 289 289 290 290 289 289 289 289 288 288 289 289 289 288 288 288 287 286 286 286 287 289 290 289 288 288 289 289 289 288 288 289 289 288 288 288 288 288 287 287 287 287 286 286 285 284 284 283
292 292 291 291 291 290 290 291 291 291 291 291 291 291 291 290 290 289 289 289 289 289 290 290 290 289 289 288 288 288 288 288 288 288 288 288 288 287 287 286 286 287 288 289 288 288 288 289 289 289 289 289 289 289 289 288 288 287 287 287 286 286 286 286 286 286 285 285 284
291 290 290 290 290 290 290 290 291 291 291 291 291 290 290 289 289 289 289 289 290 290 289 289 289 289 289 288 288 287 287 287 287 287 287 288 288 287 287 287 286 287 287 287 285 285 286 287 289 289 289 289 289 289 288 288 288 287 286 286 285 285 285 285 285 286 285 285 285
290 289 289 289 289 290 290 290 290 291 291 291 290 290 289 289 289 289 289 289 289 289 289 289 289 289 289 289 288 288 287 287 287 286 286 286 286 287 287 287 286 287 287 286 285 285 286 287 288 288 289 289 289 288 288 287 287 286 286 285 285 284 284 284 284 284 284 284 284
289 289 289 289 289 289 290 290 290 290 290 290 290 289 289 289 289 289 289 289 289 289 289 289 290 289 289 289 288 288 288 287 287 286 285 285 285 285 286 286 286 286 286 285 285 285 286 287 288 288 288 289 288 288 287 286 286 286 285 284 284 283 283 283 283 283 283 283 283
289 289 289 289 289 290 290 290 290 290 290 290 289 289 289 288 288 289 289 289 289 289 290 290 290 290 289 289 289 288 288 287 287 286 285 285 284 285 285 285 286 285 285 284 284 285 286 287 288 288 288 287 288 287 286 285 285 285 284 284 283 283 282 282 282 281 281 282 282
289 288 288 288 289 290 290 290 290 290 290 289 289 288 288 288 288 288 289 289 289 289 290 290 290 290 290 289 289 289 288 287 287 287 286 285 285 285 285 285 285 285 284 283 284 285 286 287 288 288 287 286 286 286 285 284 284 284 283 283 282 282 281 281 281 281 281 281 281
288 288 288 288 289 289 290 290 289 289 289 289 288 287 287 288 288 288 288 289 289 289 290 290 289 289 289 289 289 289 289 288 288 287 286 285 285 285 286 285 285 285 284 283 284 285 286 287 287 287 286 284 284 284 284 283 283 282 282 282 281 281 281 281 280 280 280 280 280
288 288 288 288 288 289 289 289 288 288 288 288 287 287 287 288 288 289 289 289 289 289 289 289 289 289 289 290 289 289 289 289 288 288 287 286 285 285 285 284 284 284 284 283 284 285 286 287 287 286 284 282 283 283 283 282 282 281 281 281 281 281 280 280 280 280 280 279 279
287 287 288 288 288 288 288 288 288 287 287 287 287 287 287 288 289 289 289 289 289 289 289 289 289 289 289 289 289 289 289 289 288 288 287 286 285 284 284 284 284 283 283 283 284 285 286 287 286 285 283 281 282 282 282 282 281 281 281 281 280 280 280 280 280 279 279 279 279
287 288 288 288 288 288 288 287 287 287 287 287 287 287 288 288 289 289 289 289 289 289 289 289 289 289 288 288 288 288 289 288 288 288 287 285 284 283 282 283 283 283 282 283 284 285 286 286 286 284 282 280 281 281 282 281 281 281 281 281 280 280 280 280 279 279 279 279 279
288 288 288 288 288 287 287 287 286 286 286 287 287 288 288 288 289 289 289 289 289 289 289 289 288 288 288 288 288 287 288 287 288 287 286 285 283 282 282 282 282 282 282 283 284 285 285 286 285 284 281 279 281 281 281 281 281 281 281 280 280 280 280 280 279 279 279 279 279
287 287 288 288 288 287 287 287 286 286 286 287 287 288 288 289 289 289 289 288 288 288 288 288 288 288 288 287 287 287 287 287 287 287 286 284 282 282 282 282 281 281 281 283 284 285 285 285 284 283 281 280 281 281 281 281 281 280 280 280 280 280 280 279 279 279 279 279 279
287 287 287 287 287 287 287 286 286 286 287 287 288 288 288 289 289 289 288 288 287 288 288 288 288 288 288 288 288 287 287 286 286 285 285 283 282 282 282 281 281 280 281 282 283 284 284 284 284 283 282 281 282 282 281 281 280 280 280 279 279 279 279 279 279 279 279 279 279
287 287 287 287 287 287 287 286 286 287 287 288 288 288 288 288 288 288 288 287 287 287 287 287 287 287 287 287 287 287 286 286 285 284 284 283 282 282 282 282 281 281 280 282 283 284 284 284 283 282 282 282 282 281 281 280 280 280 280 279 279 279 279 279 279 279 279 279 279
287 286 286 286 286 286 287 286 287 287 287 288 288 288 288 288 288 288 288 287 287 287 287 287 287 287 286 286 286 286 285 285 283 283 282 282 281 281 281 281 281 281 280 281 283 283 283 283 283 282 282 282 282 281 281 280 280 280 279 279 279 279 279 279 279 279 279 279 279
287 286 286 286 286 286 286 286 287 287 287 287 288 288 288 287 287 288 288 287 287 286 286 286 286 286 286 285 285 284 284 283 282 281 281 280 280 280 281 281 280 280 280 281 282 282 282 283 282 282 282 281 281 281 280 280 279 279 279 279 279 279 279 279 279 279 279 279 279
286 286 285 285 286 286 286 286 287 287 287 287 287 287 287 287 287 287 287 287 286 286 286 285 285 285 284 283 283 283 282 282 281 280 280 279 279 280 280 280 279 279 279 280 281 281 282 282 282 282 282 282 282 281 280 280 279 279 278 278 278 278 278 278 279 279 279 279 279
285 285 285 285 285 286 286 286 287 287 287 287 287 287 287 286 286 286 286 286 286 286 285 285 284 284 283 282 282 281 281 281 281 280 279 278 278 278 278 278 279 279 279 280 280 281 281 281 281 281 282 282 282 281 280 280 279 278 278 278 278 278 278 277 278 278 278 278 278
Wind_Speed
6 5 4 4 3 3 3 2 2 1 2 3 3 4 4 4 4 4 3 3 3 3 3 3 3 4 4 5 5 5 5 5 5 5 5 5 5 5 5 5 4 4 4 4 3 3 2 2 2 1 1 0 1 1 1 1 0 0 0 0 0 0 0 0 0 1 1 1 1
6 5 4 3 3 3 3 2 2 1 2 2 3 3 4 4 4 4 3 3 3 2 3 3 3 4 5 5 5 5 5 5 6 5 5 5 5 5 5 5 5 4 4 4 3 3 2 2 2 2 1 1 1 1 1 1 1 1 1 1 1 1 1 1 1 1 2 2 2
5 4 4 4 4 4 3 3 3 3 3 3 3 3 3 3 3 3 3 3 2 2 2 2 3 4 5 5 5 5 5 5 6 6 5 5 5 6 6 5 5 5 5 4 4 3 3 3 2 2 2 2 2 2 2 1 1 2 2 2 1 1 2 2 2 2 2 2 2
4 4 4 4 4 4 4 3 4 4 4 4 3 3 3 3 2 2 2 2 2 2 2 3 3 4 4 5 5 5 5 5 6 6 6 5 6 6 6 6 6 6 5 5 5 5 4 4 3 3 3 3 3 2 2 2 2 2 2 2 2 2 2 2 2 2 2 2 2
3 3 3 3 3 3 3 3 4 4 4 4 3 3 3 2 2 2 2 2 2 2 3 3 3 4 4 5 5 6 6 5 5 5 5 6 6 6 6 6 6 6 5 5 6 6 6 5 4 3 3 4 3 3 2 2 2 2 2 2 2 2 2 2 2 2 2 2 2
2 2 1 1 1 1 2 2 3 4 4 3 4 4 4 3 3 3 3 3 3 3 3 3 3 3 4 5 5 5 5 5 5 5 5 6 6 6 7 7 7 6 6 5 6 6 6 6 4 4 4 4 4 3 3 3 3 3 3 3 3 3 3 3 2 2 2 3 3
2 1 1 0 1 2 2 3 3 3 4 4 5 5 5 4 4 4 4 3 3 3 3 3 3 4 4 5 5 5 5 5 5 6 6 6 7 7 7 7 7 7 7 6 6 6 6 6 5 4 4 4 3 3 3 3 3 3 3 3 3 3 3 3 3 2 3 4 4
1 0 0 1 2 2 3 4 4 4 4 4 5 5 6 5 5 5 4 4 3 3 3 3 4 4 5 5 5 5 5 6 6 6 6 7 7 8 8 8 8 8 8 7 6 6 6 5 4 4 4 4 4 4 4 4 4 4 5 5 4 3 3 3 3 3 3 4 4
1 0 1 2 2 3 3 4 4 4 5 5 5 5 5 5 5 5 4 4 4 3 3 3 4 5 5 5 5 5 5 5 6 6 6 7 7 8 8 8 8 8 7 7 7 7 6 5 4 4 4 4 4 4 4 5 5 6 6 5 5 5 4 4 4 4 4 5 5
1 0 1 2 2 3 3 4 4 5 5 5 5 5 5 4 4 4 4 3 3 4 4 4 4 5 5 5 5 5 5 5 5 6 6 7 7 7 7 7 7 7 7 6 6 6 6 5 4 5 5 4 5 5 5 5 6 7 7 5 5 6 6 6 5 5 5 5 5
0 1 1 2 3 3 4 4 4 4 4 5 5 5 4 4 4 4 3 3 4 4 4 4 4 4 5 5 5 5 5 5 5 5 6 7 7 7 7 7 7 7 6 6 5 5 5 4 5 5 6 5 5 5 5 6 7 7 8 7 7 7 8 7 6 5 5 5 5
1 1 2 2 3 3 4 4 4 4 4 5 5 5 4 4 4 3 3 4 4 4 4 4 4 4 4 4 4 4 4 4 5 5 6 6 6 6 6 6 6 6 6 6 5 4 4 4 5 6 6 6 5 5 5 6 7 8 9 9 8 8 8 8 7 6 5 4 5
2 2 2 2 3 3 4 4 4 4 4 4 4 4 4 3 3 3 3 4 4 3 3 3 3 3 3 3 4 4 4 4 4 5 5 5 5 6 6 5 5 5 5 5 4 4 4 4 5 6 7 7 6 5 6 7 7 8 9 10 9 9 9 9 8 6 5 5 5
2 2 2 2 3 3 4 4 4 4 4 4 4 4 3 3 3 3 3 3 3 3 3 3 3 3 3 3 3 4 4 4 4 4 4 5 5 5 5 4 5 5 5 4 4 4 4 5 5 6 6 7 7 6 6 6 7 8 9 10 10 10 10 10 8 7 6 6 6
2 2 2 2 3 3 3 4 3 3 4 4 4 3 3 3 3 2 3 3 3 3 3 3 2 2 2 3 3 3 4 4 4 4 4 4 4 4 4 4 4 4 4 4 3 4 4 4 5 5 5 6 7 7 7 6 7 7 8 9 10 10 10 10 9 8 7 6 6
2 2 2 3 3 3 3 3 3 3 3 4 4 3 3 3 3 2 3 3 3 3 2 3 2 2 2 2 3 3 3 3 4 4 4 4 4 4 3 3 4 4 4 3 3 3 3 3 4 4 5 5 6 7 7 7 7 7 8 8 9 9 10 10 9 8 7 7 7
2 3 3 3 4 4 3 3 3 3 3 4 4 4 3 3 3 3 3 3 3 3 3 3 2 2 2 2 2 3 3 3 3 3 3 3 3 3 3 3 3 3 3 3 3 3 3 3 3 3 4 5 5 6 6 7 7 7 8 8 8 9 9 9 9 9 8 8 8
3 3 4 4 4 4 4 3 3 4 4 4 4 4 4 3 3 3 3 3 3 3 3 3 3 3 3 3 3 3 3 4 4 4 4 4 4 3 3 2 2 2 2 2 3 3 4 4 3 3 4 4 5 5 6 6 6 7 7 8 8 9 9 9 9 9 8 8 8
4 4 4 5 4 4 4 3 4 4 4 4 4 4 4 4 4 3 3 3 3 3 4 4 3 3 3 4 4 3 3 4 4 4 4 4 4 4 3 3 2 2 2 2 2 3 3 4 4 4 4 4 5 5 5 6 6 6 7 7 8 8 9 9 9 8 8 8 8
4 5 5 5 4 4 3 3 4 4 4 4 5 5 5 4 4 4 4 3 3 3 4 4 4 3 4 4 4 4 4 3 4 5 5 5 4 4 4 3 3 3 2 2 2 3 3 3 4 4 4 4 5 5 6 6 6 7 7 7 7 8 8 9 9 8 8 8 8
5 5 5 4 4 4 3 3 4 4 4 5 5 5 5 4 4 4 4 4 4 4 4 4 4 4 4 4 5 5 4 4 4 4 5 5 5 4 4 4 4 3 3 2 2 3 3 3 4 4 4 4 5 6 6 6 7 7 7 7 7 8 8 8 8 8 8 8 8
6 5 5 4 4 4 4 4 4 4 4 5 5 5 5 4 4 4 4 4 4 4 4 4 4 4 4 4 5 5 5 4 4 4 4 4 4 4 4 4 4 4 4 3 3 3 3 3 4 4 4 4 5 6 6 6 7 7 8 8 8 9 9 8 8 8 8 8 8
5 5 4 4 4 4 4 4 4 4 4 5 5 4 4 4 4 4 4 4 4 4 4 4 4 4 4 4 4 5 5 5 5 5 4 4 4 4 4 4 5 5 4 3 3 3 3 4 4 4 4 5 5 6 6 6 7 7 8 9 9 9 9 8 8 8 7 7 7
5 4 4 3 3 4 4 4 4 4 4 4 4 4 4 4 4 4 4 4 4 4 4 4 4 4 4 4 4 4 5 5 5 5 5 4 4 4 4 4 5 5 4 3 3 3 4 4 4 4 5 5 5 6 6 6 7 7 7 8 9 9 9 9 8 8 8 8 7
4 4 4 4 4 4 4 4 4 4 4 4 4 4 4 4 4 4 5 5 5 5 5 5 5 4 4 4 4 4 4 4 5 5 5 5 4 4 4 4 4 4 3 3 4 5 6 6 6 5 5 5 5 5 6 6 6 6 7 7 7 8 8 9 9 9 9 9 8
4 4 4 4 4 4 4 4 4 4 4 4 4 4 4 4 4 4 5 5 6 6 6 6 5 5 4 4 4 4 4 4 4 4 5 5 5 5 4 4 4 3 3 4 6 7 8 9 8 7 6 6 5 5 5 5 5 5 6 6 6 7 8 8 9 9 9 9 9
4 4 4 4 4 5 5 4 4 4 4 4 5 5 5 4 4 4 5 5 6 6 6 6 5 5 4 4 5 5 5 5 4 5 5 5 5 5 5 4 3 3 3 5 7 8 9 10 9 8 7 6 5 5 5 5 5 5 5 5 6 6 7 8 9 9 10 10 10
4 4 4 4 5 5 5 4 4 4 4 4 5 5 5 5 5 5 5 5 6 6 6 5 5 4 4 4 5 6 6 6 5 5 5 5 5 5 5 4 3 3 4 5 7 9 9 10 10 9 7 5 4 4 4 5 5 5 5 5 5 6 7 7 8 9 10 11 11
4 4 5 5 6 6 5 4 4 4 4 5 5 5 5 5 5 5 5 5 6 6 5 5 4 4 4 5 5 6 6 6 5 5 5 5 6 5 5 4 4 4 4 6 7 8 9 9 9 8 6 5 3 3 3 4 4 4 5 5 5 6 7 8 8 9 10 11 11
4 5 5 5 6 6 5 5 4 4 4 4 5 5 5 5 5 5 5 6 6 6 6 5 5 5 6 6 6 6 6 6 5 5 5 6 6 6 6 5 4 4 4 5 6 7 8 9 8 6 4 4 3 3 3 3 4 4 5 5 6 7 8 9 10 11 11 11 12
4 4 5 5 6 6 5 5 4 4 4 4 4 5 5 5 5 5 5 6 6 6 6 6 6 7 7 7 7 7 7 6 6 5 6 6 7 7 7 6 5 4 4 5 6 7 8 9 7 4 3 3 2 2 3 3 4 4 5 5 7 8 9 9 10 11 12 13 13
4 4 5 5 6 6 5 5 4 4 4 4 5 5 5 5 5 5 5 5 6 6 6 7 7 8 8 8 8 8 8 7 7 7 6 7 7 8 7 6 5 4 4 5 6 7 8 8 5 2 3 3 2 2 3 3 4 4 5 6 8 9 9 9 10 11 13 13 13
4 4 5 5 5 5 5 5 4 4 4 4 4 5 5 5 5 5 5 5 5 6 7 7 8 8 8 8 8 8 8 8 8 8 7 7 7 7 7 6 4 3 4 6 7 8 8 7 3 1 3 2 1 2 3 4 4 5 6 7 8 9 10 11 11 11 12 13 12
4 4 5 5 5 5 5 4 4 4 4 4 4 4 5 5 6 6 6 5 5 6 6 7 7 7 8 8 8 8 8 7 8 8 7 7 6 6 6 4 3 3 5 7 7 8 8 6 2 1 3 2 1 2 3 5 5 6 7 8 8 9 10 10 11 11 12 12 11
4 4 5 5 5 5 5 4 4 4 4 4 5 5 5 5 6 6 6 6 6 6 6 7 7 7 7 7 7 7 7 8 8 8 7 6 6 6 5 4 2 4 6 7 7 8 8 6 1 1 2 1 0 2 4 5 6 7 8 9 9 10 10 10 10 11 11 11 11
4 4 5 5 5 5 4 4 4 4 4 4 5 5 5 6 6 6 6 6 6 6 7 7 7 7 7 7 7 7 7 8 8 8 7 6 5 5 4 3 2 4 6 7 7 8 8 6 2 1 2 1 2 3 4 5 6 7 8 9 9 10 10 10 10 10 10 10 11
3 4 4 5 5 4 4 3 3 4 4 4 5 5 6 6 6 6 5 5 6 7 7 7 7 8 8 8 8 8 7 7 7 7 6 5 4 4 4 3 3 4 5 7 7 8 8 8 5 2 1 2 3 4 4 5 6 7 8 9 10 10 10 9 9 9 9 10 11
3 3 4 4 4 4 3 3 3 4 4 5 5 5 5 6 6 5 5 5 6 6 7 7 8 8 8 8 8 7 7 6 5 5 5 4 4 3 3 3 3 4 5 6 7 8 8 9 8 6 4 3 4 5 5 5 6 7 8 9 9 10 10 8 8 8 9 10 11
3 3 3 3 4 3 3 3 4 4 5 5 5 5 5 5 5 5 5 5 5 6 7 7 7 7 7 7 7 6 5 4 4 4 4 4 3 3 2 2 3 3 4 6 7 8 9 9 10 10 8 4 4 4 5 6 7 8 9 9 9 9 9 8 7 8 8 10 12
3 3 3 3 3 3 3 3 4 4 4 5 5 5 5 5 5 5 5 5 5 5 6 6 6 6 6 5 5 4 4 3 3 3 3 3 3 2 2 2 2 3 4 6 7 8 9 10 10 11 10 6 5 4 5 6 7 9 9 9 9 9 8 8 8 8 8 10 11
3 3 3 3 3 3 3 3 4 4 4 5 5 5 5 5 5 5 5 5 5 5 4 4 5 5 4 4 3 3 3 3 3 3 3 3 2 2 2 2 2 3 4 5 7 8 9 10 11 12 11 9 7 6 5 6 8 9 10 10 9 8 8 8 8 8 8 9 9
Wind_Direction
75 76 76 73 71 69 66 64 53 29 14 14 9 6 3 1 2 5 5 2 360 357 357 359 356 351 345 343 340 339 341 346 351 354 355 355 360 1 1 2 1 1 0 359 358 359 359 356 345 338 333 329 321 314 307 298 286 275 283 328 38 42 28 353 355 333 312 307 306
79 81 82 83 77 70 64 56 47 22 4 4 0 360 1 3 3 4 5 6 1 354 348 348 347 344 341 340 338 337 339 345 347 349 350 352 353 352 351 350 347 346 344 341 338 333 328 322 311 300 287 272 270 265 265 274 286 286 285 288 304 295 283 276 276 275 271 271 277
84 83 80 75 65 56 46 39 28 16 9 3 358 357 358 3 3 2 2 359 350 340 334 339 343 342 341 338 336 336 338 342 344 344 344 345 345 344 342 340 336 333 329 324 318 310 302 298 290 281 271 264 260 258 257 254 262 271 276 275 271 265 261 262 263 263 264 264 271
88 81 74 66 57 47 38 28 17 10 6 0 354 354 357 2 1 357 352 344 337 335 336 338 340 341 341 337 334 333 334 336 335 335 335 336 337 337 336 333 330 325 320 314 307 300 292 286 278 269 263 262 261 257 249 241 238 247 256 260 259 258 258 260 260 262 264 267 270
95 85 75 69 57 42 27 16 5 0 357 351 346 346 350 355 353 348 343 340 340 339 334 328 328 331 333 331 330 329 329 330 328 328 329 330 330 330 329 327 323 319 315 310 304 298 290 282 273 266 261 260 257 248 239 236 237 239 240 243 245 250 252 255 255 258 263 266 267
103 98 90 70 35 0 355 354 348 344 342 338 338 341 344 346 342 339 337 337 334 327 319 310 311 317 323 326 326 325 326 326 325 325 325 324 324 323 321 320 318 315 313 311 306 300 291 281 273 265 262 261 259 250 240 235 239 238 237 237 235 237 242 247 252 259 267 272 276
105 100 83 1 313 321 330 334 332 331 330 330 336 340 340 336 331 328 325 322 318 315 311 305 310 317 323 325 324 324 323 322 321 321 320 318 317 316 315 314 314 314 314 314 312 306 297 287 277 269 264 258 258 249 239 234 239 240 239 238 233 235 240 247 254 263 271 277 282
132 115 326 309 306 315 322 326 326 327 327 329 335 336 335 330 323 318 312 308 310 313 312 308 314 318 320 319 319 319 318 316 315 315 314 311 310 309 308 309 310 311 313 316 315 311 306 297 283 273 267 258 256 246 235 226 232 237 241 243 240 237 235 241 246 254 263 271 277
120 167 291 292 301 312 319 321 320 320 320 322 327 329 328 324 317 312 307 305 309 310 309 307 313 315 315 311 312 313 313 313 311 310 309 307 306 305 305 305 307 309 312 314 315 315 312 304 289 278 270 264 261 253 240 226 230 235 240 245 245 241 237 236 239 245 253 261 268
90 351 300 304 316 320 319 316 313 311 311 313 318 321 321 316 310 306 304 305 305 302 301 307 314 314 312 311 312 313 313 312 310 309 307 305 305 304 304 304 306 309 312 316 318 319 316 308 298 291 284 275 272 266 256 240 239 239 242 246 247 246 244 241 239 241 246 251 258
196 279 298 314 325 324 319 314 310 308 307 310 315 317 316 311 308 306 303 300 295 296 302 313 315 313 312 312 315 316 315 314 312 310 309 307 306 306 306 306 309 312 317 324 326 325 323 319 315 309 304 297 288 280 271 259 253 251 251 255 254 254 254 252 247 244 246 250 256
230 260 285 304 316 316 314 311 308 307 307 309 314 316 316 313 314 310 303 295 294 300 309 318 315 311 310 311 315 316 316 315 314 311 309 308 308 308 309 311 316 322 328 335 337 336 334 337 334 329 323 317 310 301 291 282 274 268 266 266 265 264 264 264 259 255 253 255 259
238 260 280 296 306 306 305 304 303 303 305 309 313 315 316 315 316 311 303 297 301 307 313 316 311 308 308 311 313 315 315 315 315 312 310 309 311 313 317 323 330 337 342 349 350 349 348 351 349 344 339 333 327 320 312 303 293 287 283 281 278 277 275 274 269 265 261 261 265
242 258 275 291 297 297 296 297 297 300 304 309 314 316 316 314 315 311 304 301 304 307 308 309 306 305 306 310 310 311 311 311 311 309 309 309 313 319 326 335 344 350 354 358 358 357 356 358 357 352 345 338 332 327 321 314 306 299 296 294 292 289 286 283 278 272 267 267 273
239 250 264 279 283 284 287 292 294 299 305 310 315 317 316 313 313 309 302 298 298 299 300 301 301 301 302 303 304 305 306 305 305 306 307 309 316 325 334 343 351 356 358 358 358 359 0 359 357 350 343 336 331 327 324 320 314 308 304 301 299 296 293 290 284 278 273 272 277
238 246 256 265 269 274 281 289 294 300 307 311 315 316 314 312 309 304 297 293 292 291 290 294 300 301 301 300 302 304 304 302 302 303 305 311 320 328 336 342 351 354 354 350 349 351 354 355 350 342 334 328 325 324 323 321 317 312 309 305 301 298 295 291 286 280 276 274 276
241 247 252 256 262 269 279 291 297 303 308 312 314 313 311 309 305 298 292 287 287 288 289 295 299 303 304 304 307 308 308 306 304 304 306 310 315 319 322 327 335 340 340 338 338 339 341 342 337 330 324 320 318 318 318 319 317 315 312 310 306 301 297 292 286 282 278 275 274
242 246 248 250 256 266 278 291 299 305 309 311 311 309 306 302 298 292 286 280 282 287 292 297 298 302 307 313 317 316 313 310 308 306 305 303 301 297 294 295 301 308 313 316 321 324 326 325 323 319 316 313 312 312 313 314 313 313 312 311 308 305 300 295 289 284 281 278 277
243 245 246 247 253 263 277 289 298 304 307 308 306 303 299 295 291 288 284 279 280 287 294 298 300 305 313 319 319 317 313 308 307 303 300 295 289 283 278 277 279 280 283 288 297 303 307 310 312 313 312 311 310 310 310 310 310 311 311 310 308 306 303 300 295 291 287 284 284
245 245 245 247 254 263 276 287 296 301 303 303 300 297 294 291 287 285 285 288 293 295 295 296 302 311 319 322 320 316 312 306 303 300 296 292 287 282 279 280 278 273 270 270 278 287 293 298 303 306 308 309 308 308 308 309 310 310 310 309 308 308 307 306 303 299 294 290 287
246 245 246 248 255 264 275 285 293 297 298 296 294 293 292 290 287 287 290 298 302 300 296 295 303 311 317 319 318 316 312 308 303 299 295 293 290 290 291 291 285 278 270 265 271 279 285 290 295 298 301 301 301 303 306 308 309 310 309 309 309 310 310 309 306 302 296 291 286
246 245 246 250 256 265 275 284 290 292 292 291 290 290 290 291 290 293 298 302 301 298 296 297 304 308 310 310 311 311 310 308 303 299 295 293 294 297 300 298 292 285 279 273 275 279 283 284 286 288 290 292 296 299 302 305 306 307 308 308 309 310 310 309 305 300 294 289 284
247 247 249 252 259 267 275 281 285 287 288 289 291 293 294 295 299 302 305 303 299 298 299 302 304 305 303 301 301 302 304 304 303 301 297 294 295 299 302 300 293 288 285 284 286 285 285 284 283 283 283 286 292 296 300 302 303 305 307 308 309 310 309 308 305 300 294 288 282
252 254 256 259 264 270 275 281 284 287 290 295 300 303 304 304 308 309 309 306 303 304 305 306 307 304 301 295 292 292 295 300 301 302 300 296 295 297 298 297 291 289 289 292 289 286 285 287 288 286 286 287 292 296 298 300 301 303 306 308 309 309 308 307 306 303 299 295 290
259 262 264 267 270 274 277 281 287 293 299 305 309 310 310 312 314 314 313 310 308 309 309 309 307 305 302 295 289 285 286 290 293 295 294 293 291 291 290 287 285 287 289 289 289 288 288 290 293 295 296 296 297 297 297 296 300 303 306 308 309 309 309 308 308 308 307 307 305
266 268 269 270 274 277 279 282 290 298 305 312 315 315 315 316 314 312 309 307 308 309 309 307 307 305 302 299 294 290 287 285 285 283 282 281 281 281 279 276 278 280 285 292 298 298 297 297 299 300 303 304 303 302 301 302 306 309 310 311 312 313 313 312 313 314 314 313 312
271 273 275 278 280 280 281 285 294 303 311 318 321 320 319 316 311 307 304 303 305 305 304 301 304 302 299 297 296 295 295 294 289 283 278 275 274 273 272 270 270 272 281 294 301 303 304 304 305 306 307 307 309 310 311 315 319 320 320 320 321 320 319 317 317 317 316 314 313
277 281 285 287 285 284 286 291 301 311 320 326 325 321 317 312 307 303 302 303 304 303 301 301 302 300 297 294 295 296 297 297 295 291 286 281 276 273 270 269 268 269 279 292 300 303 305 306 307 310 313 316 318 321 323 324 326 327 328 329 328 327 324 321 318 316 315 313 311
285 289 291 290 289 290 293 299 310 321 327 328 323 318 312 306 304 304 305 306 306 306 306 307 306 302 296 293 295 296 296 295 295 296 297 294 288 283 278 274 273 275 281 291 298 302 304 305 305 312 324 340 336 335 337 337 335 333 332 331 331 330 327 323 319 317 314 312 311
293 293 292 292 293 296 300 309 319 326 327 324 318 312 307 305 306 307 309 309 308 307 307 307 304 300 297 296 297 297 297 298 300 302 304 304 301 298 293 288 284 284 288 294 300 304 306 305 304 317 352 23 7 355 350 348 343 338 334 331 331 329 326 323 319 317 315 314 312
295 294 294 295 298 302 308 317 324 325 322 317 312 309 306 306 308 310 311 309 307 306 304 301 298 297 297 298 299 299 300 303 306 310 313 314 311 308 304 299 293 293 299 306 309 311 310 306 307 327 31 50 29 10 359 352 345 339 334 331 329 328 326 322 320 317 316 315 314
296 297 299 301 303 308 314 321 322 320 316 311 307 305 304 305 307 308 308 307 306 305 304 303 302 302 303 304 304 305 306 309 313 317 320 321 316 312 306 300 299 306 318 324 323 320 316 309 314 359 69 71 46 21 2 349 341 334 329 326 326 326 325 323 319 317 316 315 314
301 304 306 307 309 313 316 319 317 315 312 307 304 302 302 304 305 306 306 307 308 309 310 310 309 309 309 309 309 310 311 313 317 320 321 321 316 309 302 297 307 326 339 339 336 330 323 315 323 58 95 95 55 13 353 340 332 327 324 323 324 324 323 322 319 317 316 315 314
310 312 312 312 313 314 314 314 312 310 307 304 301 301 302 305 307 309 311 316 316 314 312 311 310 309 308 308 308 309 311 314 317 319 320 320 313 303 297 297 320 349 353 350 346 339 331 325 336 100 115 121 52 346 337 330 325 322 321 321 321 322 322 321 319 317 316 314 313
317 316 314 313 313 312 311 310 309 306 304 302 301 302 303 306 309 312 316 320 317 314 311 310 309 307 305 305 306 308 310 314 316 317 318 318 309 300 295 299 327 355 359 359 354 346 339 338 359 121 136 151 303 323 324 323 320 319 319 318 318 319 319 318 316 315 313 313 312
316 314 311 309 309 308 308 307 306 303 300 299 301 304 307 310 311 313 317 319 316 313 311 311 310 310 310 312 314 316 318 319 318 317 317 317 309 302 300 309 343 4 6 3 357 350 347 351 13 118 162 227 293 309 314 316 315 316 316 315 315 316 316 315 312 310 309 310 310
311 306 303 302 302 303 303 303 300 298 298 298 301 305 309 311 311 313 316 317 315 314 314 314 314 316 318 322 322 323 324 324 321 320 320 321 314 309 311 328 4 14 11 3 356 353 352 354 0 0 250 278 301 310 312 313 313 314 314 314 314 314 313 310 306 305 305 307 308
305 298 293 292 294 296 297 297 295 295 297 299 302 306 308 309 309 312 315 317 316 315 315 315 317 320 323 326 324 325 326 328 328 328 329 330 323 318 323 344 10 17 11 1 356 355 354 353 350 343 328 306 310 313 314 314 314 315 315 315 314 313 311 307 304 303 304 307 307
301 292 284 280 282 286 288 290 291 293 296 300 302 304 305 307 308 312 315 316 314 313 313 314 317 322 325 327 325 327 332 340 348 349 345 339 329 325 334 359 14 15 7 359 357 356 355 353 345 342 337 321 314 313 314 314 315 315 315 315 314 313 311 308 307 307 308 309 309
295 284 274 268 270 273 278 282 287 292 295 298 300 302 304 306 308 311 313 313 312 311 311 313 318 324 328 329 328 333 343 357 15 14 2 345 331 335 356 25 23 15 6 360 358 356 353 350 345 342 338 326 320 314 311 313 315 316 317 317 316 315 314 314 313 313 313 314 313
285 274 266 261 262 264 269 277 285 290 294 295 297 300 304 307 307 310 313 314 315 315 315 316 322 328 333 335 339 348 0 13 26 24 12 352 342 353 18 35 27 17 7 0 357 354 350 346 344 341 338 332 326 319 314 315 317 318 319 319 318 317 316 317 317 317 317 318 319